• En España
  • Lista de países
  • Para 7 días
  • Temperatura del agua
  • Mapa Satelital
  • El tiempo en el mapa
  • Informadores
  • user-avatar
    Iniciar sesión

    Tiempo cada hora Malaya Lapushka

    Hoy, 23 Octubre, Martes

    Tiempo Temperatura Precipitaciones Viento Presión Humedad
    00:00 +5°C° 0.6 mm 4 mps 736 mmHg 89%
    01:00 +5°C° 0.6 mm 4 mps 736 mmHg 89%
    02:00 +5°C° 0.6 mm 3 mps 736 mmHg 90%
    03:00 +5°C° 0.2 mm 3 mps 735 mmHg 90%
    04:00 +5°C° 0.2 mm 3 mps 735 mmHg 89%
    05:00 +4°C° 0.2 mm 3 mps 735 mmHg 89%
    06:00 +4°C° 0 mm 3 mps 735 mmHg 89%
    07:00 +3°C° 0 mm 3 mps 734 mmHg 90%
    08:00 +4°C° 0 mm 2 mps 734 mmHg 91%
    09:00 +4°C° 0 mm 2 mps 734 mmHg 87%
    10:00 +5°C° 0 mm 2 mps 733 mmHg 83%
    11:00 +5°C° 0 mm 2 mps 733 mmHg 79%
    12:00 +6°C° 0 mm 2 mps 732 mmHg 75%
    13:00 +6°C° 0 mm 2 mps 731 mmHg 72%
    14:00 +7°C° 0 mm 2 mps 731 mmHg 68%
    15:00 +6°C° 0 mm 2 mps 730 mmHg 72%
    16:00 +5°C° 0 mm 2 mps 729 mmHg 76%
    17:00 +5°C° 0 mm 2 mps 728 mmHg 80%
    18:00 +3°C° 0 mm 3 mps 727 mmHg 80%
    19:00 +3°C° 0 mm 3 mps 727 mmHg 81%
    20:00 +3°C° 0 mm 3 mps 726 mmHg 81%
    21:00 +3°C° 0 mm 3 mps 725 mmHg 81%
    22:00 +3°C° 0 mm 3 mps 724 mmHg 80%
    23:00 +3°C° 0 mm 4 mps 723 mmHg 79%

    Mañana, 24 Octubre, Miércoles

    Tiempo Temperatura Precipitaciones Viento Presión Humedad
    00:00 +3°C° 0.1 mm 4 mps 722 mmHg 79%
    01:00 +3°C° 0.1 mm 4 mps 721 mmHg 79%
    02:00 +2°C° 0.1 mm 5 mps 720 mmHg 79%
    03:00 +2°C° 0.4 mm 5 mps 719 mmHg 81%
    04:00 +3°C° 0.4 mm 4 mps 718 mmHg 82%
    05:00 +3°C° 0.4 mm 4 mps 717 mmHg 83%
    06:00 +3°C° 0.5 mm 4 mps 717 mmHg 84%
    07:00 +3°C° 0.5 mm 4 mps 717 mmHg 85%
    08:00 +3°C° 0.5 mm 4 mps 716 mmHg 86%
    09:00 +3°C° 0.2 mm 4 mps 716 mmHg 86%
    10:00 +4°C° 0.2 mm 3 mps 717 mmHg 85%
    11:00 +4°C° 0.2 mm 3 mps 717 mmHg 85%
    12:00 +4°C° 0.2 mm 3 mps 717 mmHg 85%
    13:00 +4°C° 0.2 mm 3 mps 717 mmHg 85%
    14:00 +4°C° 0.2 mm 3 mps 717 mmHg 85%
    15:00 +5°C° 0.2 mm 2 mps 718 mmHg 87%
    16:00 +4°C° 0.2 mm 2 mps 718 mmHg 89%
    17:00 +4°C° 0.2 mm 2 mps 718 mmHg 91%
    18:00 +4°C° 0.2 mm 2 mps 719 mmHg 91%
    19:00 +3°C° 0.2 mm 3 mps 719 mmHg 91%
    20:00 +3°C° 0.2 mm 3 mps 720 mmHg 92%
    21:00 +3°C° 0.3 mm 3 mps 720 mmHg 91%
    22:00 +3°C° 0.3 mm 3 mps 720 mmHg 90%
    23:00 +3°C° 0.3 mm 3 mps 721 mmHg 90%

    Pasado mañana, 25 Octubre, Jueves

    Tiempo Temperatura Precipitaciones Viento Presión Humedad
    00:00 +3°C° 0.4 mm 3 mps 721 mmHg 89%
    01:00 +3°C° 0.4 mm 4 mps 721 mmHg 89%
    02:00 +1°C° 0.4 mm 4 mps 722 mmHg 89%
    03:00 +1°C° 0.2 mm 4 mps 722 mmHg 88%
    04:00 +1°C° 0.2 mm 4 mps 722 mmHg 88%
    05:00 +1°C° 0.2 mm 4 mps 722 mmHg 87%
    06:00 0°C° 0 mm 4 mps 722 mmHg 86%
    07:00 0°C° 0 mm 4 mps 722 mmHg 84%
    08:00 0°C° 0 mm 4 mps 722 mmHg 82%
    09:00 0°C° 0 mm 5 mps 722 mmHg 81%
    10:00 0°C° 0 mm 5 mps 722 mmHg 80%
    11:00 +1°C° 0 mm 5 mps 721 mmHg 78%
    12:00 +1°C° 0 mm 5 mps 721 mmHg 78%
    13:00 +1°C° 0 mm 5 mps 721 mmHg 78%
    14:00 +1°C° 0 mm 6 mps 721 mmHg 77%
    15:00 +1°C° 0 mm 6 mps 721 mmHg 77%
    16:00 +1°C° 0 mm 5 mps 721 mmHg 77%
    17:00 +1°C° 0 mm 5 mps 721 mmHg 76%
    18:00 0°C° 0 mm 5 mps 721 mmHg 78%
    19:00 0°C° 0 mm 5 mps 721 mmHg 79%
    20:00 0°C° 0 mm 5 mps 722 mmHg 80%
    21:00 0°C° 0 mm 5 mps 722 mmHg 82%
    22:00 0°C° 0 mm 5 mps 722 mmHg 84%
    23:00 -1°C° 0 mm 5 mps 723 mmHg 86%

    26 Octubre, Viernes

    Tiempo Temperatura Precipitaciones Viento Presión Humedad
    00:00 -1°C° 0 mm 4 mps 723 mmHg 86%
    01:00 -1°C° 0 mm 4 mps 724 mmHg 86%
    02:00 -1°C° 0 mm 4 mps 724 mmHg 86%
    03:00 -1°C° 0 mm 4 mps 725 mmHg 87%
    04:00 -1°C° 0 mm 4 mps 725 mmHg 88%
    05:00 -1°C° 0 mm 4 mps 725 mmHg 88%
    06:00 -1°C° 0 mm 4 mps 726 mmHg 88%
    07:00 -1°C° 0 mm 4 mps 726 mmHg 88%
    08:00 -1°C° 0 mm 4 mps 727 mmHg 88%
    09:00 0°C° 0 mm 4 mps 727 mmHg 87%
    10:00 0°C° 0 mm 4 mps 727 mmHg 85%
    11:00 +1°C° 0 mm 4 mps 728 mmHg 84%
    12:00 +1°C° 0 mm 4 mps 728 mmHg 83%
    13:00 +1°C° 0 mm 4 mps 728 mmHg 82%
    14:00 +1°C° 0 mm 4 mps 729 mmHg 81%
    15:00 +1°C° 0.1 mm 4 mps 729 mmHg 82%
    16:00 +1°C° 0.1 mm 4 mps 729 mmHg 82%
    17:00 +2°C° 0.1 mm 3 mps 730 mmHg 83%
    18:00 +1°C° 0.1 mm 3 mps 730 mmHg 84%
    19:00 +1°C° 0.1 mm 3 mps 730 mmHg 86%
    20:00 +1°C° 0.1 mm 3 mps 731 mmHg 87%
    21:00 0°C° 0 mm 3 mps 731 mmHg 89%
    22:00 0°C° 0 mm 3 mps 732 mmHg 91%
    23:00 0°C° 0 mm 3 mps 732 mmHg 92%

    27 Octubre, Sábado

    Tiempo Temperatura Precipitaciones Viento Presión Humedad
    00:00 -1°C° 0 mm 3 mps 733 mmHg 93%
    01:00 -1°C° 0 mm 3 mps 733 mmHg 94%
    02:00 -1°C° 0 mm 2 mps 734 mmHg 95%
    03:00 -2°C° 0 mm 2 mps 734 mmHg 96%
    04:00 -2°C° 0 mm 2 mps 734 mmHg 96%
    05:00 -2°C° 0 mm 2 mps 735 mmHg 97%
    06:00 -2°C° 0 mm 2 mps 735 mmHg 96%
    07:00 -1°C° 0 mm 2 mps 735 mmHg 95%
    08:00 -1°C° 0 mm 2 mps 735 mmHg 93%
    09:00 0°C° 0 mm 3 mps 735 mmHg 89%
    10:00 +2°C° 0 mm 3 mps 734 mmHg 85%
    11:00 +3°C° 0 mm 3 mps 734 mmHg 80%
    12:00 +3°C° 0.2 mm 4 mps 734 mmHg 81%
    13:00 +3°C° 0.2 mm 4 mps 733 mmHg 81%
    14:00 +3°C° 0.2 mm 5 mps 733 mmHg 81%
    15:00 +3°C° 0.5 mm 5 mps 732 mmHg 83%
    16:00 +3°C° 0.5 mm 5 mps 732 mmHg 85%
    17:00 +3°C° 0.5 mm 5 mps 731 mmHg 87%
    18:00 +3°C° 0.2 mm 5 mps 731 mmHg 87%
    19:00 +5°C° 0.2 mm 5 mps 731 mmHg 88%
    20:00 +5°C° 0.2 mm 5 mps 731 mmHg 88%
    21:00 +5°C° 0.1 mm 4 mps 731 mmHg 89%
    22:00 +5°C° 0.1 mm 4 mps 732 mmHg 90%
    23:00 +5°C° 0.1 mm 4 mps 732 mmHg 90%

    28 Octubre, Domingo

    Tiempo Temperatura Precipitaciones Viento Presión Humedad
    00:00 +5°C° 0.1 mm 3 mps 732 mmHg 92%
    01:00 +5°C° 0.1 mm 3 mps 732 mmHg 93%
    02:00 +5°C° 0.1 mm 2 mps 732 mmHg 95%
    03:00 +5°C° 0.1 mm 2 mps 732 mmHg 95%
    04:00 +5°C° 0.1 mm 2 mps 732 mmHg 95%
    05:00 +5°C° 0.1 mm 2 mps 732 mmHg 96%
    06:00 +5°C° 0.1 mm 2 mps 732 mmHg 96%
    07:00 +6°C° 0.1 mm 1 mps 732 mmHg 96%
    08:00 +6°C° 0.1 mm 1 mps 733 mmHg 96%
    09:00 +6°C° 0.2 mm 1 mps 733 mmHg 95%
    10:00 +7°C° 0.2 mm 1 mps 733 mmHg 94%
    11:00 +7°C° 0.2 mm 1 mps 733 mmHg 93%
    12:00 +7°C° 0.8 mm 1 mps 732 mmHg 94%
    13:00 +7°C° 0.8 mm 1 mps 732 mmHg 95%
    14:00 +7°C° 0.8 mm 1 mps 732 mmHg 96%
    15:00 +7°C° 1.6 mm 1 mps 731 mmHg 96%
    16:00 +5°C° 1.6 mm 2 mps 731 mmHg 96%
    17:00 +5°C° 1.6 mm 2 mps 730 mmHg 97%
    18:00 +5°C° 0.4 mm 2 mps 730 mmHg 96%
    19:00 +5°C° 0.4 mm 2 mps 729 mmHg 95%
    20:00 +5°C° 0.4 mm 3 mps 729 mmHg 95%
    21:00 +5°C° 0.2 mm 3 mps 728 mmHg 94%
    22:00 +6°C° 0.2 mm 4 mps 728 mmHg 93%
    23:00 +7°C° 0.2 mm 4 mps 728 mmHg 92%

    29 Octubre, Lunes

    Tiempo Temperatura Precipitaciones Viento Presión Humedad
    00:00 +6°C° 0.1 mm 5 mps 729 mmHg 89%
    01:00 +5°C° 0.1 mm 6 mps 730 mmHg 86%
    02:00 +4°C° 0.1 mm 6 mps 730 mmHg 83%
    03:00 +3°C° 0 mm 6 mps 732 mmHg 83%
    04:00 +3°C° 0 mm 5 mps 733 mmHg 83%
    05:00 +2°C° 0 mm 5 mps 734 mmHg 83%
    06:00 +2°C° 0.1 mm 5 mps 735 mmHg 83%
    07:00 +4°C° 0.1 mm 4 mps 736 mmHg 83%
    08:00 +4°C° 0.1 mm 4 mps 737 mmHg 84%
    09:00 +4°C° 0 mm 4 mps 738 mmHg 81%
    10:00 +4°C° 0 mm 4 mps 739 mmHg 78%
    11:00 +4°C° 0 mm 4 mps 739 mmHg 75%
    12:00 +4°C° 0 mm 4 mps 740 mmHg 75%
    13:00 +4°C° 0 mm 4 mps 741 mmHg 76%
    14:00 +4°C° 0 mm 4 mps 741 mmHg 76%
    15:00 +4°C° 0 mm 3 mps 742 mmHg 78%
    16:00 +3°C° 0 mm 3 mps 742 mmHg 80%
    17:00 +3°C° 0 mm 3 mps 743 mmHg 83%
    18:00 +4°C° 0 mm 2 mps 743 mmHg 85%
    19:00 +3°C° 0 mm 2 mps 744 mmHg 87%
    20:00 +3°C° 0 mm 2 mps 744 mmHg 89%
    21:00 +2°C° 0 mm 2 mps 744 mmHg 90%
    22:00 +2°C° 0 mm 2 mps 745 mmHg 91%
    23:00 +3°C° 0 mm 1 mps 745 mmHg 92%
    Mostrar más